Location: Bremen
(53.0793°N, 8.8017°E)
Time: 22:21:25
(UTC+02:00)

Envisat - Pass Details

Date: 27 February 2024
Orbit: 762 x 764 km, 98.3° (Epoch: 13 April)

Event Time Altitude Azimuth Distance (km) Brightness Sun altitude
Rises 03:12:42 0° 20° (NNE) 3,244 7.0 -35.6°
Reaches altitude 10° 03:15:14 10° 30° (NNE) 2,313 6.2 -35.3°
Enters shadow 03:18:58 32° 74° (ENE) 1,306 4.6 -34.9°
